Temperature
-7 -8 -8 -8 -9 -9 -9 -10 -12 -12 -11 -11 -11 -11 -11 -11 -10 -11 -10 -10 -10 -10 -9 -9 -8 -7 -6 -5 -4 -3 -2 -0 1 2 3 5 6 8
-7 -8 -8 -8 -8 -9 -9 -10 -11 -12 -12 -11 -12 -11 -11 -11 -11 -11 -10 -11 -10 -10 -10 -9 -8 -7 -6 -5 -5 -4 -3 -2 -0 1 2 4 5 7
-7 -8 -8 -8 -9 -9 -9 -10 -11 -11 -12 -12 -12 -11 -11 -11 -10 -10 -10 -10 -10 -10 -10 -9 -9 -8 -7 -6 -5 -4 -3 -2 -1 0 1 3 4 6
-7 -8 -8 -8 -8 -9 -9 -10 -11 -11 -12 -12 -12 -11 -11 -11 -11 -11 -11 -11 -11 -10 -10 -9 -9 -8 -7 -6 -5 -4 -4 -3 -2 -1 1 2 4 5
-7 -8 -8 -8 -9 -9 -9 -10 -10 -11 -11 -11 -12 -11 -11 -11 -11 -11 -11 -11 -11 -11 -11 -10 -9 -8 -7 -6 -5 -5 -4 -3 -2 -1 -0 1 3 4
-7 -8 -8 -8 -9 -9 -9 -10 -10 -10 -11 -11 -11 -11 -11 -11 -11 -11 -11 -11 -11 -11 -11 -10 -10 -9 -8 -7 -6 -5 -4 -3 -3 -2 -1 1 2 3
-7 -8 -8 -9 -9 -9 -9 -10 -10 -10 -10 -10 -11 -11 -11 -11 -11 -11 -12 -12 -12 -12 -11 -10 -10 -9 -7 -6 -5 -5 -4 -3 -3 -2 -1 0 2 3
-7 -8 -8 -9 -9 -9 -10 -10 -10 -9 -9 -10 -10 -10 -11 -11 -11 -12 -12 -12 -12 -12 -11 -11 -10 -9 -8 -7 -5 -4 -4 -3 -2 -2 -1 0 1 3
-7 -8 -8 -9 -9 -9 -9 -9 -9 -9 -10 -10 -11 -11 -11 -11 -12 -12 -12 -12 -12 -11 -12 -11 -10 -9 -8 -7 -6 -5 -4 -3 -2 -1 -1 0 1 3
-7 -8 -8 -9 -9 -9 -9 -9 -9 -9 -10 -11 -11 -11 -11 -11 -11 -11 -11 -11 -12 -11 -11 -11 -10 -9 -8 -7 -5 -5 -4 -3 -2 -1 -1 0 2 3
-7 -8 -8 -9 -9 -9 -9 -9 -9 -10 -10 -11 -11 -12 -12 -12 -12 -12 -12 -12 -12 -12 -12 -11 -10 -9 -7 -6 -5 -4 -3 -2 -2 -1 -0 0 2 3
-7 -7 -8 -9 -9 -9 -9 -9 -10 -10 -10 -11 -11 -11 -12 -12 -13 -13 -13 -13 -13 -12 -12 -11 -10 -9 -7 -5 -4 -4 -3 -2 -2 -1 -0 1 2 3
-7 -8 -8 -9 -9 -9 -9 -10 -10 -10 -10 -11 -11 -12 -12 -13 -13 -13 -13 -13 -13 -13 -12 -11 -11 -10 -8 -6 -4 -3 -3 -2 -1 -1 0 1 2 3
-8 -8 -8 -9 -9 -10 -10 -10 -10 -11 -11 -11 -12 -12 -12 -12 -12 -12 -12 -12 -12 -12 -11 -11 -11 -10 -10 -8 -6 -3 -2 -2 -1 -0 0 1 2 3
-8 -8 -9 -9 -9 -9 -10 -10 -11 -11 -11 -12 -12 -12 -12 -12 -12 -12 -12 -12 -11 -11 -10 -10 -10 -9 -9 -9 -7 -4 -3 -2 -1 -0 0 1 2 3
-7 -8 -8 -9 -9 -9 -9 -10 -10 -11 -12 -12 -12 -12 -12 -12 -12 -12 -12 -11 -11 -10 -9 -9 -9 -8 -8 -7 -7 -5 -3 -2 -1 -0 0 1 2 3
-8 -8 -8 -8 -9 -9 -9 -10 -10 -11 -11 -11 -12 -12 -12 -12 -11 -11 -11 -11 -11 -10 -9 -8 -8 -8 -7 -7 -6 -5 -3 -2 -1 -0 0 1 2 3
-8 -8 -8 -8 -9 -9 -10 -10 -10 -11 -11 -11 -11 -11 -12 -11 -11 -11 -11 -11 -10 -9 -8 -8 -8 -7 -7 -6 -5 -4 -3 -2 -1 -0 0 1 2 3
-8 -8 -8 -8 -9 -9 -10 -10 -10 -11 -11 -11 -11 -11 -11 -11 -11 -11 -11 -10 -10 -9 -8 -7 -7 -7 -7 -6 -3 -3 -2 -1 -0 0 1 1 2 4
-7 -8 -8 -8 -9 -9 -10 -10 -10 -11 -11 -11 -11 -11 -11 -11 -11 -11 -11 -10 -10 -9 -7 -7 -6 -6 -6 -5 -4 -3 -2 -1 -0 0 1 2 3 4
-7 -8 -8 -8 -9 -9 -10 -10 -10 -11 -11 -11 -11 -11 -11 -11 -11 -11 -10 -10 -10 -9 -7 -6 -5 -5 -5 -5 -4 -3 -2 -1 0 1 1 2 3 4
-7 -8 -8 -8 -9 -9 -10 -10 -10 -10 -11 -11 -11 -11 -11 -11 -11 -10 -10 -10 -9 -9 -8 -6 -5 -5 -5 -5 -4 -3 -1 -1 0 1 1 2 3 4
-7 -7 -8 -8 -9 -9 -9 -10 -10 -10 -11 -11 -11 -11 -11 -11 -11 -10 -10 -10 -9 -8 -7 -6 -5 -5 -4 -4 -3 -3 -2 -1 0 1 2 3 3 5
Wind_Speed
11 11 11 11 11 11 12 13 15 20 23 13 7 8 13 17 24 23 22 29 33 34 34 33 32 31 30 29 27 26 24 20 19 17 15 16 16 18
10 11 12 11 11 12 13 13 14 17 22 14 12 11 13 17 25 23 22 31 32 33 33 32 31 30 30 28 27 25 24 22 20 18 17 17 17 17
11 12 15 14 13 13 13 13 14 15 20 19 14 13 14 16 16 18 21 20 22 30 31 31 31 30 29 29 28 26 24 22 21 20 19 18 18 18
13 13 15 13 15 14 13 15 15 15 18 22 17 14 16 16 15 15 15 17 16 26 30 31 31 30 29 29 28 26 24 23 22 21 20 20 19 19
13 14 15 15 16 14 15 15 15 15 15 18 19 16 15 14 15 15 16 13 16 21 26 27 28 29 28 28 28 27 25 24 23 22 21 20 20 19
14 15 15 15 16 15 15 16 15 16 16 16 18 17 15 13 12 13 14 12 13 14 18 21 25 27 27 27 27 26 25 24 23 23 22 21 20 19
14 14 15 17 20 18 16 13 13 14 14 15 16 15 14 12 12 12 14 13 12 12 12 13 13 12 13 19 22 24 24 24 24 24 23 22 21 20
13 12 12 15 19 24 27 27 24 19 16 15 15 15 16 14 13 13 13 14 14 7 9 12 10 11 11 11 19 24 25 25 25 24 24 23 22 21
10 10 11 11 17 11 21 26 24 25 24 17 16 16 17 15 16 17 16 16 15 10 10 14 11 12 11 14 24 25 25 26 26 25 25 24 22 21
9 10 11 11 13 16 16 15 11 12 16 14 13 16 15 15 15 16 15 14 14 12 11 12 10 11 12 11 21 25 26 27 27 26 25 24 22 20
10 10 11 11 20 25 18 12 10 11 18 21 22 22 26 25 20 12 10 10 12 10 7 8 8 9 10 11 15 24 26 27 27 27 26 24 22 19
8 9 14 15 21 23 14 10 12 14 11 10 14 18 15 16 20 11 8 9 9 7 5 6 6 5 5 5 7 9 14 23 27 26 25 23 21 13
9 6 7 17 21 22 19 9 16 17 8 10 11 11 10 8 9 9 9 9 10 9 6 4 4 4 5 5 4 5 7 9 12 16 21 23 22 16
7 6 8 17 20 20 15 17 22 18 9 11 11 11 11 10 9 9 10 11 11 12 10 8 7 7 6 6 5 4 4 6 8 10 9 16 19 20
6 11 14 17 17 12 15 19 16 9 10 11 12 12 10 10 10 9 9 9 10 11 13 14 13 11 9 8 7 6 4 3 5 7 9 10 10 10
7 9 12 13 11 12 12 11 8 9 11 10 11 11 11 10 10 9 9 8 7 6 9 12 13 14 12 12 10 10 8 5 3 5 7 8 9 10
5 2 2 4 5 6 7 7 7 8 10 10 11 11 12 11 11 9 8 7 6 6 5 5 9 11 13 10 9 11 10 8 7 5 6 9 10 11
4 2 3 4 6 7 8 9 8 9 10 10 11 11 11 11 11 10 8 8 8 7 6 5 4 5 7 11 17 13 10 9 7 6 6 7 9 9
3 3 3 4 5 6 7 8 8 9 9 9 10 11 11 11 11 10 9 9 8 8 7 5 5 6 7 7 8 19 13 9 7 7 7 6 8 9
3 4 4 4 5 6 7 7 8 9 9 9 10 10 10 11 11 10 10 10 10 9 8 5 5 7 8 5 4 5 18 12 8 8 6 5 5 7
4 4 4 4 5 6 7 7 8 8 9 9 9 10 10 10 10 11 10 14 12 8 9 8 7 11 7 5 6 6 7 17 14 7 6 6 6 6
5 4 4 4 4 5 6 7 7 8 9 8 9 10 10 10 11 12 11 11 10 10 11 10 8 7 7 9 10 8 6 6 14 17 13 8 6 9
5 4 4 4 4 5 5 6 8 8 8 8 9 9 10 10 10 10 11 11 11 11 11 9 7 5 7 9 9 8 8 7 6 8 10 14 15 11
Wind_Direction
248 250 252 258 256 255 257 259 271 288 293 291 283 263 273 276 279 282 280 286 290 292 293 294 294 290 289 287 285 282 281 282 281 281 281 282 282 283
249 252 256 259 259 259 259 259 258 266 281 286 285 280 278 282 283 283 283 286 290 291 291 290 290 288 285 285 283 278 274 274 277 278 281 283 288 289
254 255 259 261 264 265 263 263 263 263 273 283 281 281 277 277 279 278 278 277 279 283 285 286 285 284 281 280 279 275 271 270 273 275 278 281 286 291
258 259 263 266 266 267 267 267 267 266 270 280 283 281 276 275 275 275 278 278 275 280 282 282 281 280 277 275 273 271 269 267 268 272 274 276 281 287
256 259 263 266 269 268 268 270 270 270 267 273 279 280 277 275 275 275 274 272 273 278 280 281 279 277 274 270 269 267 265 263 263 265 269 272 276 280
256 258 260 262 265 268 271 269 269 269 269 270 275 278 276 273 271 277 280 273 273 276 277 277 277 276 272 268 265 263 262 261 260 260 262 265 267 271
259 258 259 264 269 277 282 280 275 275 275 274 277 280 282 283 280 279 279 281 274 269 271 272 272 269 271 269 265 262 260 258 257 256 256 259 260 261
261 262 261 270 279 285 290 293 291 289 291 288 289 288 288 286 284 279 280 280 280 256 257 268 265 267 263 258 259 258 255 254 254 251 251 253 254 255
257 264 272 274 287 283 287 290 289 289 294 295 292 289 289 286 282 277 270 266 268 264 265 272 266 266 265 260 258 252 248 247 247 246 245 246 246 248
252 257 266 272 277 285 282 283 274 274 284 286 277 280 283 283 277 274 272 269 266 262 255 265 265 264 265 256 256 248 244 240 240 240 239 240 240 241
256 259 266 270 285 295 300 297 290 287 298 299 300 303 304 305 302 297 286 278 277 273 247 253 268 269 265 255 247 242 238 235 234 233 233 233 232 233
265 261 275 285 295 302 306 304 302 299 297 299 302 302 298 296 299 294 285 277 277 278 247 239 258 266 272 247 233 229 228 229 227 227 227 227 224 223
272 268 270 293 300 307 313 308 301 312 319 308 303 300 296 291 284 274 263 257 257 254 258 271 275 279 286 306 291 242 220 215 217 221 222 221 219 214
265 268 277 296 305 312 315 309 314 324 319 310 308 309 309 305 297 286 273 258 248 249 246 241 252 264 284 294 293 296 267 220 205 205 206 214 216 215
260 278 292 304 312 313 308 314 323 320 310 311 312 310 307 300 300 296 286 271 258 248 244 235 236 244 248 255 273 294 302 259 218 202 199 202 201 201
275 284 297 306 308 306 310 314 311 306 313 311 309 307 308 308 307 306 304 300 284 266 243 233 229 227 234 240 249 262 270 279 259 222 204 200 197 197
247 237 276 300 304 306 306 306 308 313 317 315 313 314 316 316 315 314 305 303 290 288 283 248 226 223 226 231 239 248 254 258 259 250 219 202 200 200
250 237 276 290 298 306 311 314 314 315 317 318 317 316 317 317 316 315 312 307 300 292 285 272 239 214 216 233 229 241 245 248 252 245 229 207 202 201
231 235 260 278 290 299 304 307 309 310 312 313 315 316 318 318 317 318 319 316 309 298 287 272 245 222 219 232 228 213 223 233 238 240 226 208 202 199
201 229 251 268 283 295 301 305 307 311 313 316 316 317 319 319 319 319 318 315 311 306 298 277 248 233 229 242 260 225 209 217 223 227 220 208 208 199
215 228 241 259 278 290 297 301 303 306 309 314 316 318 320 321 318 318 317 318 318 307 300 289 267 263 259 255 253 243 220 213 217 218 205 192 189 186
214 226 240 255 273 284 293 299 304 305 309 313 317 320 320 319 318 317 317 316 312 304 297 290 277 262 229 226 234 237 230 214 221 232 240 225 186 186
209 218 234 256 270 282 289 296 301 305 307 312 317 320 322 322 320 317 316 315 313 310 308 302 291 258 236 225 230 231 226 216 201 202 223 234 231 235
Height
1459 1457 1454 1450 1448 1444 1440 1435 1428 1415 1400 1400 1398 1395 1393 1389 1385 1382 1378 1374 1371 1367 1364 1361 1358 1356 1354 1354 1354 1355 1356 1358 1362 1366 1371 1376 1380 1385
1452 1448 1445 1442 1439 1435 1431 1426 1421 1413 1397 1390 1389 1386 1384 1380 1377 1374 1370 1366 1362 1358 1355 1352 1350 1348 1348 1347 1347 1349 1351 1353 1355 1359 1363 1368 1372 1377
1443 1440 1436 1434 1430 1426 1422 1417 1412 1406 1394 1383 1382 1378 1375 1371 1367 1364 1361 1356 1352 1348 1346 1344 1342 1341 1340 1340 1341 1342 1344 1346 1349 1353 1356 1361 1365 1370
1435 1432 1428 1426 1422 1418 1413 1408 1403 1397 1390 1378 1373 1370 1366 1362 1358 1354 1351 1347 1343 1339 1337 1334 1333 1332 1332 1333 1333 1335 1337 1340 1342 1346 1350 1354 1359 1363
1426 1423 1420 1418 1413 1409 1404 1399 1393 1388 1382 1373 1364 1361 1356 1353 1349 1345 1341 1337 1334 1330 1327 1324 1323 1322 1323 1324 1326 1328 1330 1333 1336 1340 1343 1348 1353 1357
1418 1415 1412 1409 1405 1400 1395 1389 1384 1379 1373 1366 1357 1351 1347 1344 1341 1336 1331 1328 1324 1321 1318 1315 1313 1312 1313 1314 1317 1319 1322 1325 1329 1333 1337 1342 1347 1352
1410 1407 1404 1401 1397 1394 1389 1383 1377 1371 1364 1357 1350 1344 1339 1336 1332 1328 1323 1318 1314 1312 1308 1305 1304 1302 1302 1304 1307 1310 1314 1317 1322 1326 1331 1335 1341 1346
1402 1399 1396 1393 1390 1385 1381 1376 1371 1365 1358 1351 1344 1338 1332 1328 1323 1319 1315 1310 1305 1304 1302 1297 1296 1294 1294 1295 1298 1301 1305 1310 1314 1319 1324 1329 1334 1340
1395 1392 1388 1385 1382 1377 1371 1366 1362 1357 1353 1346 1337 1329 1323 1319 1314 1309 1305 1301 1297 1296 1295 1289 1288 1286 1285 1286 1289 1293 1297 1302 1307 1312 1317 1323 1328 1335
1388 1385 1381 1377 1373 1369 1363 1358 1353 1348 1343 1335 1329 1321 1315 1310 1305 1300 1296 1292 1289 1288 1287 1283 1280 1279 1278 1278 1281 1284 1289 1294 1299 1304 1310 1316 1322 1329
1380 1378 1374 1370 1366 1362 1358 1352 1345 1339 1334 1328 1322 1315 1308 1301 1296 1292 1288 1285 1282 1280 1280 1277 1274 1273 1272 1271 1273 1277 1281 1286 1292 1297 1303 1309 1316 1323
1373 1370 1368 1364 1360 1357 1353 1346 1338 1331 1325 1318 1312 1305 1298 1292 1288 1285 1281 1278 1276 1273 1272 1272 1270 1270 1267 1266 1268 1271 1275 1280 1285 1291 1297 1303 1310 1317
1366 1363 1361 1358 1355 1352 1347 1341 1334 1328 1320 1312 1304 1297 1290 1285 1280 1277 1274 1272 1269 1267 1268 1268 1266 1266 1266 1264 1264 1266 1270 1274 1279 1284 1291 1297 1304 1311
1360 1357 1355 1352 1349 1346 1340 1335 1330 1323 1315 1306 1299 1291 1285 1279 1274 1270 1267 1264 1262 1260 1260 1262 1262 1262 1262 1261 1261 1262 1265 1269 1274 1279 1285 1291 1298 1305
1354 1352 1350 1347 1343 1339 1335 1330 1325 1317 1310 1302 1295 1287 1281 1274 1268 1264 1260 1257 1255 1253 1253 1254 1255 1256 1258 1258 1258 1259 1262 1265 1269 1274 1279 1285 1292 1299
1349 1347 1345 1342 1339 1335 1330 1326 1320 1314 1307 1300 1292 1284 1277 1270 1265 1260 1255 1252 1249 1248 1248 1248 1249 1251 1252 1253 1255 1255 1258 1261 1265 1269 1275 1280 1286 1293
1343 1341 1339 1337 1334 1330 1326 1321 1316 1310 1304 1297 1289 1281 1274 1267 1262 1257 1252 1248 1246 1243 1242 1243 1244 1245 1247 1249 1251 1251 1254 1257 1261 1265 1270 1275 1281 1287
1339 1336 1335 1332 1329 1326 1322 1317 1312 1307 1301 1294 1287 1279 1272 1265 1259 1254 1250 1246 1242 1240 1239 1239 1240 1242 1244 1244 1245 1246 1249 1253 1257 1261 1265 1270 1275 1282
1334 1332 1330 1328 1326 1323 1319 1314 1310 1305 1299 1292 1285 1278 1270 1263 1257 1251 1247 1242 1239 1236 1235 1235 1236 1237 1238 1239 1239 1242 1244 1248 1252 1257 1261 1265 1270 1277
1329 1328 1326 1325 1322 1320 1316 1312 1307 1302 1297 1290 1283 1276 1269 1262 1255 1250 1244 1240 1236 1233 1231 1231 1231 1232 1233 1235 1236 1237 1240 1243 1248 1252 1256 1261 1267 1275
1324 1323 1322 1321 1319 1317 1314 1310 1305 1300 1295 1289 1282 1275 1268 1261 1254 1248 1243 1238 1233 1229 1227 1226 1226 1227 1228 1230 1231 1231 1235 1238 1242 1247 1253 1258 1264 1270
1320 1319 1319 1318 1316 1314 1311 1307 1303 1299 1293 1287 1281 1274 1267 1260 1253 1247 1241 1235 1230 1226 1222 1220 1220 1220 1221 1222 1223 1225 1229 1233 1237 1242 1248 1254 1258 1265
1316 1315 1315 1314 1313 1311 1308 1305 1301 1297 1292 1286 1280 1273 1266 1259 1252 1246 1239 1233 1228 1223 1219 1216 1214 1214 1214 1216 1218 1220 1224 1227 1232 1237 1242 1248 1254 1261